GW6293 Weather Reports


Display with metric or nautical units.
time (UTC)temp
F
wind
direction
speed
MPH
gust
MPH
rain 1hr
in
rain 24hr
in
rain mn
in
humidity
%
barometer
mb
20260504003942 85 244 2.0 6.0 0.00 0.00 0.00 75 1009.8
20260504002941 86 232 1.0 6.0 0.00 0.00 0.00 73 1009.9
20260504001941 87 239 1.0 6.0 0.00 0.00 0.00 70 1009.8
20260504000942 87 278 4.0 5.0 0.00 0.00 0.00 69 1009.6
20260503235941 88 276 1.0 5.0 0.00 0.00 0.00 65 1009.5
20260503232942 89 231 0.0 5.0 0.00 0.00 0.00 56 1009.4
20260503231942 89 258 0.0 8.0 0.00 0.00 0.00 63 1009.5
20260503225942 87 212 1.0 10.0 0.00 0.00 0.00 67 1009.2
20260503224942 88 219 2.0 10.0 0.00 0.00 0.00 64 1009.2
20260503223942 88 260 2.0 12.0 0.00 0.00 0.00 61 1009.3
20260503221941 89 160 3.0 8.0 0.00 0.00 0.00 58 1009.4
20260503220942 90 235 2.0 7.0 0.00 0.00 0.00 56 1009.4
20260503215941 91 150 5.0 8.0 0.00 0.00 0.00 52 1009.5
20260503214942 92 161 6.0 7.0 0.00 0.00 0.00 48 1009.6
20260503213942 91 169 5.0 8.0 0.00 0.00 0.00 49 1009.9
20260503212946 92 310 3.0 8.0 0.00 0.00 0.00 52 1009.6
20260503211941 91 244 1.0 8.0 0.00 0.00 0.00 48 1009.7
20260503210942 91 173 3.0 7.0 0.00 0.00 0.00 44 1009.8
20260503205942 91 165 6.0 10.0 0.00 0.00 0.00 45 1009.9
20260503204942 91 225 3.0 9.0 0.00 0.00 0.00 48 1010.0
20260503203942 91 303 1.0 9.0 0.00 0.00 0.00 47 1010.0
20260503202941 91 138 3.0 7.0 0.00 0.00 0.00 50 1010.4
20260503201941 90 162 4.0 11.0 0.00 0.00 0.00 48 1010.4
20260503200942 92 82 2.0 10.0 0.00 0.00 0.00 48 1010.5
20260503195941 91 295 2.0 6.0 0.00 0.00 0.00 48 1010.7
20260503194942 91 115 2.0 10.0 0.00 0.00 0.00 47 1010.9
20260503192941 91 149 7.0 9.0 0.00 0.00 0.00 45 1011.1
20260503185941 90 231 5.0 13.0 0.00 0.00 0.00 49 1011.4
20260503184941 90 247 2.0 11.0 0.00 0.00 0.00 47 1011.6
20260503183941 91 124 2.0 9.0 0.00 0.00 0.00 49 1011.5
20260503181942 90 153 7.0 9.0 0.00 0.00 0.00 52 1011.7
20260503180942 88 193 1.0 10.0 0.00 0.00 0.00 55 1011.8
20260503175941 88 151 5.0 12.0 0.00 0.00 0.00 57 1012.0
20260503174942 88 278 0.0 11.0 0.00 0.00 0.00 56 1012.0
20260503173942 89 232 4.0 11.0 0.00 0.00 0.00 57 1012.0
20260503172942 89 225 2.0 9.0 0.00 0.00 0.00 58 1012.2
20260503171942 88 234 2.0 11.0 0.00 0.00 0.00 60 1012.0
20260503170942 87 197 2.0 11.0 0.00 0.00 0.00 61 1012.4
20260503150941 86 215 3.0 6.0 0.00 0.00 0.00 69 1012.5
20260503080942 75 315 0.0 1.0 0.00 0.00 0.00 90 1010.9
20260503072941 76 224 0.0 1.0 0.00 0.00 0.00 88 1011.0
20260503071941 76 243 0.0 1.0 0.00 0.00 0.00 87 1010.9
20260503054929 78 353 0.0 1.0 0.00 0.00 0.00 85 1010.8
20260503053929 78 231 0.0 1.0 0.00 0.00 0.00 84 1011.1
20260503052930 78 219 1.0 1.0 0.00 0.00 0.00 84 1011.0
20260503051930 79 333 0.0 2.0 0.00 0.00 0.00 83 1011.0
20260503045930 79 205 0.0 2.0 0.00 0.00 0.00 83 1011.0
20260503043929 80 218 0.0 2.0 0.00 0.00 0.00 81 1010.9
20260503042930 80 213 1.0 2.0 0.00 0.00 0.00 82 1011.0
20260503040930 80 309 0.0 1.0 0.00 0.00 0.00 82 1010.8
20260503035929 80 304 0.0 2.0 0.00 0.00 0.00 82 1010.8
20260503034929 80 251 1.0 2.0 0.00 0.00 0.00 81 1010.8
20260503033929 80 240 0.0 2.0 0.00 0.00 0.00 81 1010.5
20260503032930 81 284 0.0 2.0 0.00 0.00 0.00 81 1010.4
20260503031930 81 269 0.0 2.0 0.00 0.00 0.00 80 1010.4
20260503030929 81 179 0.0 2.0 0.00 0.00 0.00 80 1010.0
20260503025930 82 245 0.0 2.0 0.00 0.00 0.00 79 1010.1
20260503024930 82 205 0.0 2.0 0.00 0.00 0.00 79 1010.1
20260503023930 82 224 0.0 2.0 0.00 0.00 0.00 79 1009.9
20260503022929 82 326 0.0 2.0 0.00 0.00 0.00 79 1009.9
20260503021932 83 320 0.0 2.0 0.00 0.00 0.00 78 1009.9
20260503020930 83 216 0.0 2.0 0.00 0.00 0.00 78 1009.7
20260503015930 83 284 0.0 2.0 0.00 0.00 0.00 78 1009.6
20260503014930 83 50 0.0 2.0 0.00 0.00 0.00 78 1009.6
20260503013929 83 320 0.0 3.0 0.00 0.00 0.00 77 1009.3
20260503012930 83 292 1.0 4.0 0.00 0.00 0.00 77 1009.3
20260503011930 83 146 1.0 4.0 0.00 0.00 0.00 76 1009.2
20260503010929 84 39 0.0 3.0 0.00 0.00 0.00 76 1009.1
20260503005930 84 39 0.0 5.0 0.00 0.00 0.00 75 1009.1
20260503004930 84 165 2.0 3.0 0.00 0.00 0.00 74 1009.0